Wind_Speed
94 93 95 92 89 86 84 80 84 85 82 78 77 77 76 76 76 74 73 71 68 66 63 60 58 55 52 50 48 46 47 47 43 40 38 37 34 31 29 26 24 24 22 21 20
99 96 94 96 93 93 89 86 89 88 84 82 80 79 79 78 77 76 74 72 70 69 66 65 62 59 55 50 49 47 46 46 46 43 41 38 35 33 31 28 27 26 25 23 22
105 102 97 95 97 95 93 91 92 91 89 87 83 82 81 78 79 77 76 73 73 72 70 68 66 62 58 53 51 50 49 50 48 46 44 41 39 37 34 32 30 29 27 24 24
110 107 103 97 99 100 96 96 94 93 91 90 86 84 84 82 80 78 77 75 75 76 74 71 69 65 61 57 54 53 52 53 53 50 47 46 44 42 39 36 34 33 31 29 28
117 111 110 104 99 104 100 100 101 97 96 94 91 89 86 81 80 82 80 79 78 78 77 74 72 69 65 60 58 56 56 55 55 54 53 51 48 45 45 42 39 37 35 35 35
121 118 113 108 105 103 105 104 103 101 100 96 95 92 91 82 81 83 83 81 80 80 80 79 76 74 70 63 62 58 58 58 57 56 55 54 51 48 48 46 43 42 40 40 42
127 123 118 114 110 106 108 107 106 107 102 100 98 97 93 85 83 83 85 84 83 84 83 84 80 78 73 69 63 62 63 61 60 60 58 57 52 54 51 48 46 45 43 45 46
124 127 123 119 114 112 110 112 113 107 108 104 103 99 94 88 86 87 85 87 86 86 86 86 84 82 79 74 71 66 65 65 64 63 62 60 58 57 54 53 51 50 49 51 50
107 126 128 126 121 118 114 113 116 112 110 107 104 103 101 93 89 89 87 86 89 87 87 87 87 84 81 80 77 71 68 68 70 69 66 64 64 60 58 55 55 54 54 56 57
105 109 127 128 128 124 121 116 116 120 115 110 108 102 103 96 93 91 91 89 88 89 88 87 86 85 84 83 79 77 76 75 75 76 72 69 67 64 63 60 58 60 61 62 62
109 104 109 125 131 128 126 124 117 118 114 110 109 105 109 106 98 98 96 95 94 91 89 89 87 81 84 85 86 82 82 79 79 77 78 75 72 70 69 66 65 65 65 65 65
113 108 104 113 122 131 130 125 122 118 118 116 115 113 113 110 103 103 102 98 95 93 91 89 85 87 86 86 88 87 85 84 83 83 83 81 77 76 73 71 69 70 68 66 64
119 115 110 107 115 126 129 126 128 120 122 123 121 120 117 116 111 106 104 105 100 98 94 91 89 88 87 88 88 86 87 88 88 88 89 88 81 80 78 72 73 72 71 68 68
124 120 115 112 111 114 123 129 128 127 128 129 124 121 118 118 114 109 109 107 104 101 100 96 91 88 87 86 87 86 89 88 88 89 89 86 84 82 78 75 73 69 69 70 73
130 126 121 115 110 107 109 120 126 132 136 130 128 124 123 119 117 114 112 110 107 107 104 97 98 94 90 89 89 88 88 87 88 84 84 81 80 74 72 73 73 73 73 72 74
132 130 126 121 114 108 110 114 126 136 143 137 130 126 124 120 121 119 114 113 111 109 106 103 99 95 94 95 93 93 93 94 93 90 85 82 80 72 73 75 78 80 80 81 83
126 134 131 125 117 115 111 115 128 135 139 138 130 126 123 127 127 126 122 118 112 113 108 108 106 104 105 102 99 100 99 96 99 99 92 90 88 78 81 81 86 88 88 89 90
118 129 134 129 125 121 118 120 126 132 137 134 131 129 130 130 130 129 131 125 117 113 117 114 112 112 112 110 110 111 111 109 108 103 101 102 94 87 86 89 93 95 94 95 96
115 118 132 134 131 128 127 129 123 124 130 131 133 134 134 134 129 129 131 127 121 119 115 116 117 115 115 118 117 119 114 118 119 114 111 104 99 96 91 94 96 100 101 101 102
104 112 120 135 134 133 134 129 126 124 120 128 133 136 133 130 131 128 128 125 122 125 122 122 120 118 119 121 122 122 122 123 123 121 119 110 109 101 103 102 105 104 106 107 108
90 102 111 124 136 139 139 135 130 123 119 122 127 132 131 131 129 132 130 126 125 125 129 126 126 124 124 120 118 123 125 126 126 126 123 119 117 110 104 105 111 113 114 115 114
80 92 103 114 131 140 141 137 129 129 122 118 120 125 130 133 129 129 130 129 129 130 127 132 135 132 128 128 126 124 124 128 128 125 129 126 113 110 112 115 115 116 115 115 119
74 83 95 111 119 132 140 139 131 130 125 125 122 121 126 128 134 132 129 130 133 133 132 133 136 135 133 131 129 131 127 127 128 132 131 128 112 114 119 118 121 125 126 129 127
66 75 85 102 114 120 133 138 137 134 132 129 128 123 118 117 123 130 130 126 128 132 137 140 139 139 134 129 137 137 136 136 137 139 131 133 120 117 121 121 121 125 128 131 130
58 66 78 90 104 116 122 130 137 138 138 136 133 126 120 119 120 120 120 123 123 128 133 138 140 140 136 136 142 140 142 142 144 139 141 132 136 122 126 131 134 134 131 132 135
49 58 67 79 90 105 114 116 128 139 142 140 137 131 131 122 119 117 118 122 122 125 129 132 131 136 138 139 143 143 146 147 141 140 143 139 141 130 132 138 140 141 138 137 141
43 50 59 69 80 90 104 116 119 128 142 144 141 137 135 130 123 124 125 126 126 127 126 130 130 133 136 136 143 150 142 140 143 145 143 147 141 138 135 134 137 143 145 141 145
Wind_Direction
221 221 222 219 217 218 217 219 220 218 218 221 224 223 223 225 228 228 227 226 227 228 230 232 233 233 232 230 230 234 235 235 236 237 240 241 244 241 240 243 247 249 245 247 254
220 219 220 220 218 217 218 218 217 216 217 218 223 223 223 224 227 229 227 227 227 228 229 231 232 233 234 231 232 233 236 234 233 235 238 239 239 238 240 245 247 248 248 250 248
219 219 218 221 218 216 219 218 216 216 217 217 218 223 222 223 227 229 227 227 227 228 229 230 232 232 233 233 231 232 234 235 234 237 237 240 237 239 240 243 247 248 247 248 249
219 219 218 219 220 217 217 216 216 216 216 216 217 219 222 225 227 230 229 226 227 227 229 229 231 232 233 234 233 233 234 237 237 240 242 242 241 239 241 244 247 247 249 252 254
218 219 219 220 219 219 216 218 216 216 217 217 215 218 220 226 227 229 229 227 226 227 229 230 231 231 233 234 235 234 234 238 240 241 244 244 243 244 243 244 247 250 253 254 256
220 218 219 219 217 220 218 218 218 217 217 217 216 216 219 223 228 229 231 230 228 227 229 230 230 231 232 233 236 236 237 238 243 243 244 245 244 246 245 245 247 252 256 259 259
220 221 218 218 218 217 219 218 219 219 218 217 218 216 217 223 229 229 232 232 230 229 228 230 231 232 232 233 237 237 238 238 242 245 246 245 246 246 243 242 247 251 255 259 262
219 220 219 218 219 219 219 218 218 220 220 219 218 215 216 221 228 229 232 234 233 230 230 229 230 232 233 234 235 237 239 241 243 245 245 246 248 248 246 245 249 253 255 257 260
219 218 220 220 220 220 220 220 220 218 219 220 219 216 217 219 224 230 231 235 235 235 233 233 232 232 234 237 237 238 239 241 242 244 245 246 251 249 250 249 250 254 256 259 261
218 219 220 221 220 221 219 219 220 220 218 220 220 219 216 220 223 226 231 234 236 236 236 235 235 234 235 237 240 239 238 239 241 243 244 246 249 249 251 251 253 254 256 258 259
218 218 218 220 222 221 220 220 221 220 221 223 221 220 219 219 221 226 230 232 234 235 237 238 238 238 236 238 240 241 241 241 243 245 245 246 248 249 252 252 254 257 260 261 261
215 218 220 219 220 222 220 221 221 221 221 219 222 222 221 220 222 226 227 230 232 233 234 238 240 238 238 239 242 244 246 246 246 247 249 248 247 250 251 254 257 261 266 268 270
213 217 218 220 220 220 221 221 223 222 223 221 220 222 222 223 222 223 225 229 231 232 233 235 236 239 241 241 242 243 245 247 248 248 248 249 248 251 253 255 258 263 267 267 265
212 214 217 220 221 221 221 222 223 223 223 221 220 221 222 225 223 224 225 227 229 231 233 234 236 238 241 244 245 246 247 248 249 250 250 251 251 252 255 257 260 263 265 266 266
214 213 216 219 221 222 222 223 222 223 223 221 221 221 222 223 224 226 227 227 228 230 230 232 235 238 240 242 244 245 246 249 249 249 250 252 252 252 254 259 259 260 262 263 264
215 214 215 216 219 220 222 222 223 223 222 219 221 222 223 224 225 229 228 228 228 230 230 232 234 235 241 243 244 245 246 246 248 248 247 250 249 246 251 254 256 258 257 258 259
217 215 215 216 217 220 221 223 225 224 223 218 219 223 223 224 225 227 229 228 230 231 232 234 234 236 238 242 245 248 249 250 251 248 247 247 249 242 247 250 255 256 258 259 260
219 216 215 215 217 219 221 223 226 225 223 219 219 222 224 224 225 226 229 228 229 231 234 234 234 237 238 240 242 244 245 247 249 248 249 248 247 248 248 250 252 256 258 262 263
219 217 216 215 216 218 221 223 225 226 225 222 219 222 224 225 226 226 228 229 232 233 236 236 235 237 239 242 242 245 245 247 247 247 248 249 248 247 249 251 254 256 257 259 261
218 218 217 216 216 218 221 223 225 226 227 224 222 222 225 227 228 228 229 229 233 234 238 236 238 238 240 241 244 246 246 248 249 249 250 250 251 252 252 253 256 258 260 261 262
219 218 217 217 217 219 221 223 225 226 227 226 224 224 225 228 229 229 230 229 231 233 235 237 239 240 241 242 244 246 248 251 252 251 252 251 252 253 255 256 259 261 262 261 262
218 219 218 217 218 219 222 222 223 226 228 229 226 226 226 227 229 232 231 232 233 234 236 237 238 239 240 242 244 245 247 249 252 255 255 254 250 256 256 257 258 261 263 264 264
216 216 217 218 219 221 223 224 224 227 227 230 228 226 226 229 230 231 233 234 234 236 237 239 240 240 241 242 246 249 249 250 252 253 255 256 254 257 258 258 260 261 263 264 265
216 215 217 219 219 221 223 223 224 227 228 229 231 228 228 228 231 233 233 234 236 238 239 240 241 241 242 244 245 247 248 249 251 252 256 257 259 258 259 260 260 261 263 265 267
218 217 216 218 219 221 223 224 224 226 228 230 231 231 230 229 230 232 233 235 237 239 240 242 243 243 243 243 245 245 247 250 252 254 256 257 258 257 260 262 262 262 263 266 267
220 218 217 219 220 221 224 225 225 225 229 230 231 232 233 230 231 232 233 234 236 238 240 242 243 245 244 245 246 247 246 247 252 254 256 257 257 259 259 260 263 266 264 265 267
221 220 218 220 221 222 223 224 225 228 229 230 232 232 234 234 232 233 232 234 235 238 240 244 244 246 247 248 249 249 250 252 252 254 257 258 258 259 261 261 260 263 266 267 269
Height
10573 10584 10595 10606 10616 10627 10637 10647 10658 10668 10677 10688 10698 10707 10715 10723 10729 10737 10743 10753 10761 10770 10776 10782 10787 10793 10798 10803 10806 10809 10814 10819 10823 10827 10831 10835 10839 10841 10844 10846 10849 10851 10853 10854 10856
10553 10565 10577 10590 10601 10611 10622 10632 10644 10653 10664 10673 10684 10694 10703 10711 10719 10726 10735 10744 10752 10759 10766 10771 10777 10782 10789 10794 10798 10802 10806 10813 10815 10820 10825 10829 10833 10836 10838 10841 10844 10846 10848 10849 10851
10532 10545 10559 10572 10585 10596 10606 10617 10628 10638 10648 10658 10669 10680 10691 10699 10707 10718 10724 10735 10740 10747 10754 10761 10766 10773 10779 10784 10789 10794 10799 10804 10809 10812 10816 10821 10826 10829 10832 10836 10838 10841 10843 10844 10846
10511 10525 10540 10553 10568 10580 10591 10602 10612 10622 10633 10643 10654 10665 10677 10685 10696 10708 10716 10723 10727 10735 10742 10749 10755 10763 10769 10774 10779 10785 10792 10795 10800 10804 10808 10814 10818 10823 10826 10829 10832 10834 10837 10840 10840
10488 10504 10519 10535 10550 10562 10575 10587 10597 10607 10617 10628 10638 10651 10662 10673 10687 10694 10702 10708 10715 10723 10730 10737 10745 10752 10759 10764 10769 10776 10783 10788 10791 10796 10800 10803 10810 10816 10819 10821 10826 10828 10831 10833 10834
10466 10482 10499 10516 10530 10544 10557 10568 10579 10590 10602 10613 10624 10635 10648 10660 10674 10680 10690 10699 10705 10711 10718 10725 10732 10741 10747 10755 10759 10770 10775 10779 10782 10786 10790 10795 10801 10806 10808 10813 10818 10820 10824 10826 10827
10443 10460 10479 10495 10511 10524 10536 10550 10564 10574 10586 10598 10608 10620 10634 10646 10659 10669 10677 10686 10692 10698 10705 10713 10722 10727 10740 10744 10753 10757 10763 10770 10775 10776 10781 10785 10793 10792 10800 10805 10809 10812 10816 10816 10817
10420 10439 10457 10474 10490 10504 10516 10531 10543 10557 10569 10581 10595 10609 10625 10632 10643 10655 10663 10671 10678 10685 10692 10700 10708 10718 10725 10739 10738 10745 10753 10760 10763 10764 10769 10773 10778 10782 10789 10796 10800 10803 10805 10805 10807
10398 10417 10436 10453 10470 10484 10497 10513 10521 10539 10551 10565 10584 10596 10609 10619 10629 10638 10651 10657 10665 10674 10681 10688 10696 10706 10717 10721 10729 10737 10742 10748 10748 10750 10757 10764 10763 10774 10779 10787 10791 10792 10794 10794 10796
10380 10397 10414 10432 10447 10462 10476 10489 10500 10517 10534 10553 10569 10585 10603 10605 10613 10623 10634 10644 10650 10657 10667 10676 10685 10696 10704 10711 10720 10721 10724 10728 10733 10737 10746 10752 10756 10763 10768 10776 10778 10781 10782 10783 10785
10361 10378 10393 10408 10424 10438 10453 10467 10488 10505 10530 10550 10565 10569 10574 10580 10594 10605 10613 10624 10632 10643 10655 10662 10673 10689 10689 10693 10695 10707 10709 10716 10719 10727 10733 10740 10745 10751 10755 10765 10766 10768 10770 10773 10776
10340 10359 10373 10386 10400 10414 10433 10459 10473 10491 10502 10517 10527 10543 10553 10564 10573 10583 10594 10609 10621 10631 10638 10650 10665 10667 10672 10680 10685 10692 10697 10703 10709 10712 10716 10724 10734 10737 10745 10751 10755 10755 10756 10760 10765
10317 10334 10352 10364 10375 10391 10421 10435 10444 10471 10478 10495 10505 10516 10532 10543 10554 10568 10580 10590 10604 10613 10625 10635 10647 10649 10658 10665 10672 10680 10683 10684 10690 10694 10698 10707 10724 10724 10731 10743 10743 10741 10743 10746 10749
10297 10312 10330 10342 10356 10379 10402 10413 10433 10450 10448 10469 10488 10503 10521 10530 10546 10559 10566 10575 10590 10602 10606 10618 10630 10639 10646 10653 10658 10666 10665 10669 10674 10680 10684 10698 10713 10718 10720 10725 10728 10728 10728 10730 10732
10275 10292 10308 10330 10345 10366 10389 10394 10408 10412 10415 10452 10472 10489 10500 10518 10534 10541 10546 10560 10573 10580 10591 10610 10614 10625 10630 10637 10637 10645 10650 10654 10656 10663 10670 10683 10690 10710 10712 10709 10708 10712 10713 10715 10712
10253 10272 10288 10306 10330 10351 10360 10375 10372 10372 10385 10421 10455 10473 10489 10510 10519 10525 10534 10545 10555 10565 10580 10590 10600 10610 10616 10622 10626 10627 10633 10634 10638 10643 10656 10663 10673 10700 10699 10695 10690 10690 10693 10694 10694
10231 10250 10270 10289 10316 10327 10340 10344 10339 10344 10370 10408 10446 10463 10481 10481 10493 10503 10515 10529 10541 10551 10569 10574 10587 10591 10594 10603 10607 10612 10617 10618 10620 10625 10648 10644 10651 10684 10676 10682 10671 10672 10672 10674 10676
10207 10228 10250 10275 10287 10302 10313 10315 10310 10334 10354 10401 10432 10439 10442 10455 10467 10485 10488 10505 10524 10538 10545 10555 10566 10573 10580 10583 10583 10585 10588 10596 10592 10603 10616 10617 10641 10658 10666 10663 10657 10653 10655 10656 10657
10187 10211 10232 10252 10268 10279 10285 10281 10305 10321 10341 10384 10408 10409 10417 10431 10453 10460 10476 10496 10509 10518 10527 10530 10541 10552 10559 10558 10563 10566 10578 10570 10566 10581 10589 10607 10628 10636 10645 10641 10641 10635 10635 10637 10638
10171 10192 10211 10229 10247 10257 10257 10271 10288 10304 10331 10357 10376 10390 10404 10422 10434 10448 10461 10490 10497 10502 10502 10513 10519 10533 10531 10533 10544 10550 10550 10547 10553 10562 10568 10597 10601 10621 10619 10624 10619 10622 10620 10621 10620
10156 10173 10194 10211 10224 10229 10234 10250 10273 10294 10315 10334 10356 10372 10390 10399 10418 10428 10444 10459 10464 10473 10474 10487 10490 10501 10508 10521 10524 10522 10529 10529 10529 10533 10547 10568 10580 10600 10611 10610 10600 10598 10597 10598 10597
10142 10156 10175 10193 10201 10210 10221 10239 10269 10277 10299 10318 10336 10355 10369 10385 10397 10409 10427 10441 10443 10443 10457 10459 10455 10468 10487 10490 10496 10498 10510 10505 10506 10531 10522 10528 10571 10584 10586 10583 10579 10574 10576 10574 10572
10126 10139 10156 10169 10184 10197 10211 10229 10257 10264 10284 10293 10310 10332 10348 10367 10375 10391 10403 10412 10421 10424 10438 10431 10439 10452 10461 10478 10490 10489 10495 10490 10494 10488 10489 10509 10564 10556 10553 10561 10557 10552 10550 10545 10549
10115 10127 10141 10151 10166 10179 10192 10213 10231 10245 10261 10276 10284 10304 10332 10349 10358 10372 10382 10392 10400 10406 10404 10401 10411 10431 10452 10474 10449 10456 10465 10467 10463 10459 10493 10492 10538 10539 10531 10527 10529 10525 10522 10521 10527
10106 10117 10125 10137 10151 10162 10170 10190 10214 10226 10236 10248 10264 10284 10308 10322 10338 10347 10361 10370 10378 10381 10381 10380 10395 10413 10431 10431 10416 10438 10441 10439 10433 10459 10460 10491 10474 10523 10508 10499 10493 10493 10500 10505 10499
10101 10110 10118 10124 10136 10147 10161 10182 10193 10205 10211 10230 10247 10263 10275 10299 10316 10333 10342 10341 10351 10346 10352 10357 10378 10376 10392 10401 10395 10401 10407 10414 10434 10440 10433 10452 10455 10486 10477 10468 10467 10467 10480 10477 10465
10094 10102 10110 10117 10123 10134 10145 10154 10168 10182 10190 10204 10219 10237 10252 10275 10294 10298 10304 10313 10321 10327 10336 10336 10355 10354 10367 10379 10365 10355 10399 10418 10415 10414 10421 10410 10439 10438 10449 10446 10437 10435 10441 10458 10443